Dewpoint
3 2 2 1 1 -2 -5 -8 -12 -16 -19 -21 -18 -16 -15 -17 -21 -20 -7 -4 1 12 13 10 8 12 13 15 13 15 17 10 5 7 6 9 10 10 11 11 11 10 13 13 15
3 2 1 1 1 -0 -4 -8 -11 -14 -20 -22 -20 -17 -15 -15 -20 -20 -7 -7 -5 11 14 12 11 10 13 15 13 14 15 13 5 4 5 8 10 10 10 10 10 11 13 15 15
2 1 1 0 0 -1 -4 -8 -10 -14 -20 -23 -21 -17 -14 -16 -20 -10 -9 -7 -10 7 15 14 15 14 16 14 14 14 14 12 8 4 6 8 9 10 10 11 10 11 12 14 15
2 1 -0 0 -0 -2 -5 -9 -11 -14 -21 -22 -22 -17 -14 -8 -0 -1 -7 -8 -5 7 11 14 15 16 14 15 14 14 13 12 6 4 6 8 9 10 10 10 10 11 11 13 14
2 2 0 -0 -2 -6 -9 -12 -13 -17 -21 -22 -22 -18 -14 -11 -1 0 -6 -11 4 2 12 12 13 12 14 12 13 14 13 9 5 5 6 8 8 9 10 10 10 10 12 12 12
2 2 1 -1 -8 -13 -15 -16 -17 -19 -19 -21 -22 -18 -15 -3 -1 -2 -12 -9 6 11 11 9 7 9 10 13 12 12 12 8 6 5 6 7 8 8 10 10 10 9 10 11 11
2 2 1 -2 -9 -5 -3 -8 -15 -17 -19 -21 -22 -17 -14 -4 -1 -1 -18 -11 6 10 9 4 1 4 10 13 12 12 13 11 11 10 9 6 7 9 9 10 10 10 10 9 10
1 2 2 -2 -7 -3 -7 -14 -17 -17 -19 -21 -21 -16 -15 -3 -0 -1 -14 -7 2 6 2 1 -1 3 12 13 13 13 14 14 12 12 11 9 10 7 8 9 9 9 10 9 10
0 0 1 -2 -7 -3 -11 -18 -20 -19 -21 -22 -17 -10 -12 -0 -1 -1 -10 4 0 -3 -5 -5 -4 11 11 13 13 13 15 15 13 12 12 10 11 7 7 8 8 8 8 9 9
0 -0 0 -1 -7 -4 -2 0 0 -11 -21 -18 -4 -4 -7 -2 -1 -2 -4 -2 -3 -6 -10 -9 -4 6 12 12 14 12 14 14 14 12 12 12 12 7 7 8 8 8 8 9 9
1 -0 -1 0 -6 -5 -4 -2 0 -2 -4 -14 -6 -5 -4 -2 -2 -3 -4 -3 -3 -8 -10 -8 0 4 9 12 10 11 14 13 13 12 12 12 13 9 7 8 8 9 9 10 10
1 0 -1 0 -6 -7 -2 -2 -1 -0 -1 -5 -5 -5 -6 -6 -5 -3 -4 -5 -10 -10 -11 -8 -5 -4 1 4 10 11 13 13 13 13 11 12 12 13 9 8 8 8 9 10 9
1 0 -1 -0 -5 -6 -2 0 -0 -1 -3 -5 -5 -5 -7 -5 -6 -6 -5 -8 -11 -10 -11 -8 -5 -8 -7 3 10 13 13 13 13 13 12 11 12 12 12 8 8 8 9 10 9
-3 -1 -2 -1 2 1 1 -1 -0 -4 -2 -2 -4 -6 -6 -6 -7 -6 -6 -10 -11 -11 -12 -9 -10 -10 -7 10 12 13 11 11 13 14 15 11 14 12 12 12 9 8 8 10 10
-10 -6 -3 -2 -1 1 1 -1 -2 -4 3 -2 -4 -7 -7 -8 -9 -8 -6 -10 -10 -11 -10 -9 -9 -6 -5 -5 5 6 2 11 12 13 12 13 14 12 11 14 13 9 8 8 10
-15 -11 -5 -5 -2 2 1 -1 -2 -1 3 -3 -9 -10 -8 -8 -9 -9 -8 -9 -9 -10 -8 -8 -8 -7 -7 -8 -3 -6 -8 -7 1 6 11 9 14 12 13 11 12 11 8 8 9
-20 -15 -9 -7 -0 3 1 -2 -2 1 -3 -5 -8 -9 -9 -8 -8 -8 -8 -8 -8 -6 -5 -5 -6 -7 -9 -8 -9 -10 -8 -4 -3 -0 4 3 13 11 5 9 11 11 9 7 7
-22 -17 -11 -9 -1 3 0 -1 1 0 1 -1 -1 -8 -7 -8 -8 -6 -6 -6 -7 -6 -4 -3 -2 -7 -9 -8 -7 -10 -8 -5 -3 -3 -2 -4 0 2 11 10 9 10 10 8 8
-22 -10 2 -0 -0 2 0 0 -1 2 0 1 -1 -7 -7 -8 -7 -7 -5 -5 -6 -6 -4 -3 -3 -6 -8 -10 -10 -9 -8 -10 -7 -6 -7 -7 4 10 10 11 11 11 10 9 8
-17 3 3 2 1 1 -0 2 2 -0 -0 -0 1 -1 0 -3 -7 -7 -6 -7 -5 -6 -7 -5 -4 -6 -7 -9 -10 -10 -10 -8 -8 -6 -6 -6 2 10 11 12 11 11 10 9 9
-9 3 4 2 1 0 1 1 1 -0 -0 -1 0 1 0 -1 -3 -4 -3 -5 -7 -7 -7 -6 -5 -4 -6 -6 -5 -9 -10 -9 -8 -7 -5 -4 -4 6 9 10 11 11 10 9 8
-11 3 -2 4 2 2 2 1 0 0 -0 -2 -1 -0 -0 -3 -2 -2 -1 -3 -1 -2 -4 -6 -5 -3 -4 -6 -8 -10 -9 -9 -6 -8 -4 -5 -5 -6 1 5 10 10 10 9 9
-1 -0 -3 -1 2 1 -1 0 -1 -2 -2 -3 -1 -1 -2 -1 0 -1 -1 -0 2 1 1 -4 -4 -2 -2 -5 -7 -8 -10 -9 -8 -8 -4 -5 -6 -9 7 10 9 10 9 10 10
1 -1 -1 -1 1 -1 -1 -2 -4 -6 -3 -5 -3 -3 -1 0 0 1 3 3 4 4 3 0 -5 -3 -1 -3 -5 -5 -7 -9 -9 -5 -6 -6 -7 -8 7 10 10 10 8 11 11
1 3 4 3 -0 1 -1 -3 -2 -1 -3 -4 -4 -2 1 2 6 7 6 5 4 4 3 1 2 -3 -2 -3 -5 -5 -6 -8 -8 -8 -6 -7 -6 -7 3 9 9 10 10 11 11
3 4 2 3 3 -0 0 1 1 2 0 -2 -0 -1 5 6 6 7 5 5 5 4 5 3 4 4 4 -1 -1 -5 -5 -5 -6 -7 -7 -7 -6 -7 -1 10 10 10 10 10 10
1 4 4 2 2 -1 1 3 2 2 2 -1 0 -1 2 4 3 3 4 2 3 5 5 4 6 6 6 3 1 -2 -5 -5 -6 -6 -6 -4 -5 -4 5 12 12 12 11 10 11
Wind_Speed
11 11 10 8 7 5 4 4 3 2 3 3 3 3 3 3 2 4 6 9 9 8 8 9 8 8 8 9 7 5 4 4 5 7 6 19 7 12 7 24 13 5 22 28 28
13 13 11 10 8 6 4 4 3 3 2 3 3 3 2 2 2 3 8 11 10 9 11 11 2 4 6 6 4 4 2 3 3 3 9 16 16 15 10 17 11 23 21 27 29
14 14 13 11 9 7 5 3 4 3 2 3 3 3 1 1 2 4 9 9 10 10 9 4 4 3 7 5 2 1 1 5 4 8 18 12 15 12 23 6 27 26 32 30 31
16 15 15 13 9 7 6 4 4 2 2 3 3 2 2 2 5 5 7 9 10 12 10 7 8 2 1 0 2 4 9 9 5 16 14 8 17 17 7 13 29 27 30 32 34
17 17 16 14 10 7 5 4 3 1 2 2 3 3 2 2 3 2 5 11 11 12 12 10 14 4 3 4 4 3 6 14 18 16 17 19 13 8 11 30 30 30 29 31 29
17 18 17 14 9 6 4 3 1 0 1 2 3 4 4 0 3 6 5 12 11 9 5 3 1 5 3 4 3 4 8 22 18 13 12 13 12 7 15 30 32 28 29 30 28
17 17 17 14 8 6 5 4 2 0 1 2 3 4 5 2 1 4 5 9 10 8 2 2 5 3 4 2 3 6 5 10 12 8 5 19 4 7 28 31 32 31 30 30 29
17 17 17 13 7 6 4 3 2 1 0 2 3 4 3 4 4 1 5 11 10 7 2 4 8 2 3 8 4 4 4 3 3 3 2 4 4 8 30 30 27 32 32 32 32
17 16 15 13 6 4 5 6 3 1 0 2 4 3 2 6 7 4 5 10 7 3 0 3 5 3 1 5 3 4 5 4 4 5 4 4 3 14 31 30 26 31 32 30 29
16 15 15 12 5 1 3 5 4 3 1 3 3 1 4 3 6 7 6 8 2 4 2 2 1 3 3 3 4 6 4 6 6 4 2 1 5 15 26 28 29 30 30 27 26
17 15 13 11 4 1 2 2 3 1 4 6 1 3 4 4 4 7 10 6 4 4 2 2 3 7 9 7 4 2 3 4 2 3 4 5 5 16 24 21 20 28 30 30 31
16 15 13 10 1 4 2 2 6 4 8 9 13 17 17 14 3 9 13 9 4 4 3 5 7 5 6 7 9 5 2 2 2 2 2 4 5 6 17 24 25 27 29 32 32
15 14 12 8 1 6 1 6 7 8 1 7 9 13 11 7 8 14 16 8 3 2 2 5 5 2 6 3 5 2 6 4 2 2 1 2 5 5 7 22 23 24 31 33 38
15 14 10 6 2 1 4 3 8 4 4 5 3 5 9 7 3 14 20 9 2 8 4 5 6 2 2 4 5 4 12 4 2 5 4 5 4 4 8 13 14 26 29 35 37
14 13 9 4 4 5 3 3 6 1 3 2 3 2 13 11 4 9 20 13 6 5 5 7 1 5 4 4 7 10 6 16 7 5 2 1 1 6 10 11 16 23 31 37 41
15 13 10 7 5 7 6 5 2 5 2 0 4 4 5 3 1 5 13 11 1 4 2 7 5 4 7 3 9 4 4 7 5 4 2 6 6 4 6 23 14 19 30 39 42
15 11 9 6 4 6 4 3 4 3 4 4 0 2 4 4 3 5 6 6 5 3 4 6 5 4 5 4 3 4 6 2 3 1 6 1 5 10 7 10 18 22 35 36 44
14 9 7 5 11 7 3 4 2 1 3 3 3 3 6 5 4 5 7 5 5 3 3 3 8 5 4 8 6 3 8 6 5 3 5 5 6 7 6 16 24 32 42 34 36
12 4 3 5 10 10 4 3 4 3 4 6 6 3 2 1 2 1 5 7 8 9 9 6 6 5 5 4 7 3 3 4 7 2 3 4 7 9 2 5 8 16 22 29 33
8 11 12 9 10 8 5 3 2 2 4 4 2 2 3 4 4 7 7 5 7 11 5 4 3 6 5 4 3 6 6 3 3 3 4 5 5 6 6 6 4 9 21 30 33
5 6 6 8 8 3 4 5 4 5 11 2 1 2 5 4 6 4 5 4 4 2 10 4 4 7 4 4 8 1 1 6 5 4 6 1 6 6 7 7 12 15 28 36 30
4 3 6 7 3 3 2 1 8 8 9 4 2 4 3 3 3 3 7 2 12 1 4 7 5 7 16 6 6 6 10 7 5 6 3 4 8 4 7 9 18 23 31 42 33
5 4 11 8 3 3 6 4 2 6 4 4 3 3 4 4 4 2 1 7 10 5 3 2 1 3 9 5 3 5 6 6 5 4 7 5 9 4 6 5 22 22 31 29 31
5 3 7 12 8 4 4 3 6 10 2 7 2 7 5 3 3 4 6 4 9 12 9 4 3 6 6 8 3 4 6 7 7 5 5 7 9 8 8 8 10 21 28 26 29
7 3 4 3 5 4 3 3 5 6 9 14 7 6 4 3 5 2 2 5 5 13 9 4 2 2 7 10 7 7 7 9 7 6 6 7 7 12 9 12 23 32 30 30 30
4 5 5 3 6 3 5 4 5 5 3 3 3 9 3 3 4 3 1 2 3 6 6 6 2 3 5 7 7 7 6 6 6 5 5 5 6 9 16 9 11 23 33 31 31
6 5 4 6 4 2 1 4 4 6 7 7 6 3 2 2 15 14 7 6 6 3 1 1 2 4 5 5 8 6 5 8 5 2 2 5 4 8 5 7 16 27 35 38 39
Wind_Direction
19 10 3 357 349 341 327 314 309 293 277 248 253 247 251 242 218 190 139 119 136 120 103 73 127 359 17 42 31 22 39 328 150 155 147 164 129 158 111 131 148 212 161 164 168
15 5 359 353 344 338 328 313 303 297 267 255 248 261 263 274 257 191 147 134 138 138 138 114 189 24 48 35 29 67 95 298 302 188 152 158 151 136 130 145 123 125 154 165 167
12 4 357 351 344 339 329 313 301 297 257 231 237 247 258 312 115 102 168 151 151 157 144 124 180 348 35 23 326 166 256 308 276 129 133 128 127 128 138 145 155 144 154 169 170
10 5 358 350 346 339 329 318 301 293 237 213 215 210 211 123 113 102 154 169 163 163 153 187 207 205 217 210 257 333 268 281 165 146 117 127 128 146 169 173 162 152 156 166 171
8 4 359 352 348 339 331 326 310 281 209 209 205 188 191 189 90 70 156 169 175 173 159 169 196 198 201 160 218 181 304 316 143 131 124 128 122 143 153 158 163 157 158 166 174
5 1 1 356 355 357 0 4 352 55 199 191 194 181 183 158 84 37 151 170 173 177 155 84 158 207 108 69 70 342 304 66 79 94 136 113 125 105 155 163 169 171 178 179 184
2 0 0 359 2 8 11 11 4 146 192 168 182 190 197 157 54 32 149 168 176 163 172 33 35 276 145 90 345 349 12 63 26 68 107 104 14 154 167 171 174 184 189 194 198
0 359 358 358 2 3 10 21 0 342 169 159 169 176 202 215 238 67 168 170 169 184 224 55 10 95 201 119 31 62 44 28 315 12 140 141 218 180 174 177 185 191 199 203 206
359 358 355 356 357 17 39 48 44 12 15 151 161 163 199 220 230 179 165 160 158 182 256 323 340 119 47 125 74 18 179 196 280 213 212 122 151 195 182 187 195 198 204 208 213
360 358 352 352 351 41 50 21 22 26 135 156 175 216 216 240 224 203 171 177 192 337 327 271 161 78 61 83 210 251 182 215 180 206 32 209 203 181 193 195 199 206 209 211 210
352 355 353 346 339 166 11 349 360 339 284 237 190 252 59 125 186 218 187 196 257 283 121 3 98 207 214 208 195 202 223 296 304 158 174 221 207 189 194 208 215 211 212 215 213
346 348 354 343 323 166 96 52 40 354 304 277 255 260 260 266 288 186 185 187 167 202 142 23 239 192 222 238 222 190 245 236 291 151 219 122 232 200 201 213 218 208 207 211 200
339 341 349 351 208 175 137 44 358 330 265 285 243 245 244 218 206 196 185 187 155 215 171 167 234 241 214 222 158 158 203 196 232 137 74 360 282 183 194 208 220 226 213 201 197
337 330 339 355 147 208 131 25 346 320 60 275 229 228 199 186 228 199 192 173 175 206 215 232 264 295 333 224 129 171 218 192 170 119 225 155 266 256 176 207 214 222 215 208 203
336 323 323 303 256 202 229 297 337 183 62 174 192 198 179 175 143 181 192 196 183 183 109 245 273 14 316 234 148 224 192 189 178 147 37 168 66 265 180 209 217 216 212 212 211
329 316 312 298 252 202 225 260 315 35 60 40 141 147 112 226 233 116 177 207 227 176 308 241 271 212 220 262 179 221 97 47 57 87 340 219 167 262 203 217 206 211 211 211 212
325 306 299 278 218 193 224 194 42 132 327 1 17 167 154 196 230 147 156 187 183 109 306 324 261 253 206 285 359 93 68 349 357 27 224 169 114 239 253 246 206 198 209 207 212
329 298 294 253 206 188 135 60 144 57 340 339 320 98 174 162 250 170 132 199 249 100 112 164 318 192 170 187 197 164 152 154 206 218 265 201 230 259 259 278 217 203 207 203 206
343 340 97 168 198 195 173 82 204 188 326 314 337 96 271 270 168 117 197 218 204 167 179 163 271 272 219 142 143 201 186 199 105 28 37 259 290 309 355 28 175 196 202 206 206
12 80 108 108 138 148 77 224 219 266 341 3 53 30 28 302 196 153 179 232 228 189 172 211 293 225 266 139 98 162 159 77 3 182 248 284 276 234 268 228 231 198 198 212 209
47 93 106 122 128 83 133 225 268 322 335 297 216 280 240 255 191 194 204 287 205 138 171 125 120 286 12 185 208 89 196 49 125 134 170 239 264 221 228 224 213 214 209 215 216
58 78 31 182 58 39 98 221 358 344 7 345 234 233 286 241 230 231 209 293 9 10 169 221 171 234 231 263 294 189 194 149 138 235 240 177 252 247 242 252 220 217 209 219 228
29 27 33 159 78 358 320 333 11 18 332 18 326 46 11 358 339 297 268 41 38 57 39 189 323 335 324 339 337 205 187 127 118 81 194 171 265 273 291 253 217 208 207 210 220
15 23 28 71 63 114 21 338 345 339 47 353 338 9 8 346 3 334 348 350 360 15 17 132 141 175 218 243 215 206 195 182 161 143 195 219 261 276 269 240 204 210 213 202 206
30 48 34 348 12 16 344 339 356 13 357 22 6 14 302 298 352 100 328 326 356 12 14 77 230 291 263 266 244 246 206 165 171 186 169 251 207 264 251 230 212 204 197 197 193
37 23 7 18 330 31 360 33 13 346 304 310 7 309 341 154 183 279 61 90 252 344 15 358 280 355 291 322 348 274 267 181 178 164 225 212 259 248 277 250 181 194 186 192 196
34 18 350 19 11 48 78 348 325 357 296 288 326 283 270 42 317 286 256 265 237 170 269 90 59 25 270 332 328 318 257 223 208 126 194 183 265 331 293 245 206 184 189 190 193
Height
1502 1501 1499 1498 1497 1496 1495 1494 1493 1493 1493 1492 1492 1493 1493 1494 1495 1496 1498 1501 1499 1497 1497 1493 1493 1495 1495 1496 1499 1499 1506 1509 1502 1504 1504 1506 1507 1512 1511 1511 1517 1518 1519 1524 1529
1503 1501 1499 1497 1496 1495 1495 1493 1493 1493 1493 1492 1492 1492 1493 1494 1495 1496 1499 1500 1500 1500 1500 1499 1494 1493 1496 1500 1501 1502 1509 1503 1494 1495 1498 1502 1503 1508 1513 1516 1518 1520 1525 1527 1531
1503 1501 1498 1496 1495 1494 1494 1493 1492 1492 1492 1492 1492 1492 1493 1494 1496 1497 1498 1500 1501 1501 1503 1503 1502 1499 1501 1503 1503 1503 1507 1496 1492 1494 1498 1502 1505 1507 1513 1519 1516 1517 1523 1528 1532
1503 1501 1498 1495 1494 1493 1492 1492 1491 1492 1492 1491 1492 1492 1493 1494 1500 1496 1498 1500 1501 1504 1505 1505 1504 1505 1505 1507 1503 1505 1497 1494 1493 1497 1502 1503 1506 1510 1510 1513 1516 1520 1523 1528 1532
1504 1501 1498 1495 1493 1492 1491 1491 1491 1491 1492 1491 1492 1492 1493 1495 1496 1496 1497 1500 1500 1505 1508 1507 1505 1506 1508 1505 1506 1506 1501 1491 1492 1498 1502 1506 1508 1511 1514 1516 1521 1524 1527 1529 1531
1504 1501 1497 1495 1492 1492 1491 1490 1490 1491 1491 1491 1492 1492 1494 1495 1495 1495 1496 1498 1500 1503 1505 1506 1506 1503 1502 1504 1505 1506 1503 1497 1499 1502 1506 1507 1512 1510 1519 1519 1523 1525 1527 1529 1530
1505 1501 1497 1495 1492 1492 1491 1490 1490 1490 1491 1491 1492 1493 1494 1495 1494 1495 1496 1498 1500 1503 1504 1505 1505 1506 1503 1506 1505 1506 1507 1500 1505 1506 1511 1508 1517 1516 1516 1520 1522 1525 1527 1529 1531
1505 1501 1498 1495 1493 1492 1491 1490 1490 1490 1491 1491 1492 1493 1492 1493 1493 1494 1496 1498 1500 1502 1503 1504 1503 1503 1505 1506 1508 1511 1513 1522 1510 1509 1510 1511 1527 1515 1516 1519 1521 1523 1525 1528 1530
1504 1501 1498 1495 1493 1492 1491 1490 1491 1490 1490 1491 1493 1492 1492 1492 1492 1494 1495 1499 1500 1501 1502 1502 1503 1504 1505 1510 1519 1520 1527 1523 1517 1507 1507 1509 1520 1513 1515 1517 1519 1519 1521 1524 1527
1504 1500 1497 1495 1493 1492 1492 1491 1491 1491 1491 1492 1492 1495 1492 1491 1491 1493 1495 1497 1499 1500 1502 1501 1503 1507 1511 1517 1537 1524 1525 1518 1515 1506 1507 1511 1511 1510 1513 1514 1513 1516 1518 1521 1523
1502 1499 1497 1494 1492 1492 1492 1492 1495 1493 1490 1489 1489 1489 1489 1491 1491 1492 1495 1497 1498 1500 1505 1502 1510 1517 1508 1508 1508 1507 1514 1513 1505 1500 1508 1510 1511 1508 1509 1513 1513 1512 1514 1516 1518
1501 1497 1495 1493 1492 1492 1492 1492 1494 1495 1490 1485 1486 1486 1488 1490 1492 1492 1495 1498 1498 1503 1503 1510 1513 1504 1501 1503 1504 1507 1512 1513 1506 1503 1509 1510 1510 1508 1508 1506 1508 1508 1509 1511 1515
1499 1496 1494 1492 1491 1492 1492 1493 1492 1491 1490 1483 1482 1483 1485 1487 1488 1490 1493 1495 1497 1501 1501 1511 1501 1497 1500 1499 1503 1509 1514 1512 1509 1504 1506 1509 1510 1506 1501 1503 1506 1506 1507 1508 1510
1497 1494 1493 1492 1494 1492 1492 1492 1491 1489 1501 1487 1481 1481 1483 1485 1487 1487 1490 1494 1496 1501 1501 1504 1495 1495 1497 1500 1501 1516 1495 1501 1506 1515 1529 1507 1536 1505 1499 1501 1501 1501 1502 1505 1508
1496 1493 1491 1491 1490 1491 1492 1491 1490 1490 1519 1481 1480 1478 1480 1484 1484 1486 1488 1492 1496 1497 1501 1503 1495 1497 1499 1494 1494 1502 1488 1497 1502 1517 1517 1519 1530 1506 1495 1502 1496 1494 1495 1498 1503
1493 1490 1488 1488 1488 1489 1490 1490 1492 1506 1508 1482 1477 1479 1482 1483 1483 1484 1488 1491 1492 1494 1494 1495 1490 1491 1490 1484 1489 1486 1492 1506 1516 1525 1544 1518 1523 1515 1502 1481 1484 1485 1489 1490 1495
1489 1487 1485 1485 1486 1487 1488 1490 1508 1516 1484 1488 1482 1479 1483 1485 1484 1484 1489 1493 1501 1510 1511 1498 1491 1485 1482 1488 1486 1493 1508 1542 1540 1547 1546 1514 1527 1504 1475 1470 1467 1472 1476 1484 1489
1484 1482 1482 1483 1483 1486 1487 1492 1509 1494 1492 1481 1480 1482 1488 1485 1485 1486 1491 1499 1493 1496 1515 1515 1517 1484 1477 1484 1490 1491 1504 1537 1546 1550 1536 1524 1522 1493 1468 1461 1461 1464 1468 1479 1484
1480 1479 1480 1480 1482 1485 1488 1509 1504 1497 1490 1488 1482 1486 1487 1483 1484 1486 1492 1492 1487 1489 1506 1517 1510 1478 1474 1475 1481 1492 1507 1500 1531 1536 1543 1522 1499 1474 1464 1465 1463 1467 1472 1476 1481
1479 1479 1481 1482 1484 1486 1492 1504 1497 1490 1489 1487 1494 1488 1495 1489 1488 1489 1495 1480 1481 1478 1479 1489 1506 1479 1472 1473 1478 1484 1486 1514 1529 1534 1541 1528 1513 1497 1472 1468 1467 1468 1469 1471 1477
1480 1481 1485 1485 1486 1488 1502 1503 1493 1490 1489 1489 1490 1492 1491 1489 1487 1489 1487 1477 1474 1475 1478 1489 1500 1490 1478 1482 1485 1490 1496 1507 1513 1525 1540 1541 1519 1472 1469 1465 1465 1463 1465 1468 1472
1480 1484 1486 1487 1490 1495 1500 1496 1493 1491 1488 1487 1487 1488 1489 1484 1484 1486 1486 1477 1475 1475 1482 1480 1495 1503 1486 1473 1471 1472 1481 1492 1518 1521 1528 1525 1506 1462 1460 1459 1457 1455 1459 1463 1467
1484 1485 1486 1486 1502 1504 1498 1495 1494 1493 1490 1491 1489 1488 1488 1489 1496 1487 1480 1478 1476 1476 1481 1478 1496 1512 1497 1482 1473 1474 1475 1485 1497 1507 1521 1521 1493 1456 1454 1453 1450 1452 1455 1459 1464
1490 1492 1489 1490 1497 1500 1503 1500 1497 1493 1492 1492 1490 1488 1490 1491 1490 1491 1490 1481 1481 1480 1477 1476 1493 1496 1509 1492 1475 1475 1468 1473 1479 1509 1504 1503 1478 1462 1454 1452 1450 1449 1452 1456 1459
1495 1501 1503 1505 1501 1503 1501 1501 1500 1500 1495 1494 1493 1496 1495 1495 1496 1497 1494 1490 1482 1481 1478 1481 1494 1489 1487 1481 1474 1467 1460 1469 1478 1477 1490 1477 1481 1461 1453 1446 1442 1442 1449 1455 1458
1501 1503 1503 1504 1504 1503 1504 1505 1503 1502 1501 1498 1499 1494 1491 1494 1493 1494 1491 1490 1488 1483 1484 1485 1491 1491 1487 1477 1473 1469 1460 1461 1462 1465 1469 1469 1470 1450 1443 1443 1442 1444 1446 1451 1454
1506 1506 1506 1508 1507 1507 1509 1508 1505 1505 1498 1496 1495 1493 1491 1491 1490 1487 1485 1484 1484 1485 1487 1489 1491 1497 1497 1483 1477 1480 1465 1458 1453 1451 1452 1464 1458 1451 1444 1441 1440 1439 1443 1445 1448